Regional Weather Roundup
Issued by NWS

Home | Current Version | Previous Version | Graphics & Text | Print | Product List | Glossary On
Versions: 1 2 3 4 5 6 7 8 9 10 11 12 13 14 15 16 17 18 19 20 21 22 23 24 25 26 27 28 29 30 31 32 33 34 35 36 37 38 39 40 41 42 43 44 45 46 47 48 49 50
788
ASUS45 KBOU 240907
RWRCO

WEATHER ROUNDUP FOR COLORADO
NATIONAL WEATHER SERVICE DENVER/BOULDER CO
300 AM MDT WED MAY 24 2017

NOTE: "FAIR" INDICATES FEW OR NO CLOUDS BELOW 12000 FEET WITH NO
SIGNIFICANT WEATHER AND/OR OBSTRUCTIONS TO VISIBILITY.

COZ001>005-013-030-031-241000-
...NORTHWEST COLORADO...

CITY           SKY/WX    TMP DP  RH WIND       PRES   REMARKS
CRAIG          FAIR      35  31  85 CALM      30.07F
HAYDEN         FAIR      39  30  70 E10       30.08F
MEEKER         FAIR      40  33  76 VRB3      30.09F
RABBIT EARS PA FAIR      32  30  93 W10G21    30.22F WCI  24
STEAMBOAT SPGS FAIR      37  31  81 CALM      30.10F
WALDEN           N/A     34  27  75 SE8       30.13F WCI  27
$$

COZ006>008-011-241000-
...WEST CENTRAL VALLEYS...

CITY           SKY/WX    TMP DP  RH WIND       PRES   REMARKS
GRAND JUNCTION FAIR      53  31  42 SE10      30.02F
MONTROSE       FAIR      48  30  49 SE7       30.10F
EAGLE          FAIR      38  29  70 CALM      30.16F
RIFLE          FAIR      43  30  60 SE5       30.09F
DELTA          FAIR      51  32  48 E7        30.07F
NUCLA          FAIR      46  30  53 E8        30.13F
$$

COZ017>023-064>068-241000-
...SOUTHWEST COLORADO...

CITY           SKY/WX    TMP DP  RH WIND       PRES   REMARKS
DURANGO        FAIR      42  22  44 N6        30.10F
CORTEZ         FAIR      39  32  76 CALM      30.10F
PAGOSA SPRINGS FAIR      38  21  50 CALM      30.16F
TELLURIDE      FAIR      40  26  56 CALM      30.27F
WOLF CREEK PAS FAIR      34  27  75 NW8G16    30.37S WCI  27
$$

COZ009-010-012-014-032>034-037-058>063-241000-
...CENTRAL COLORADO...

CITY           SKY/WX    TMP DP  RH WIND       PRES   REMARKS
ASPEN          FAIR      35  28  75 S6        30.17F WCI  30
BUENA VISTA    FAIR      34  27  75 S3        30.14F
COPPER MTN     CLOUDY    34  21  60 MISG      30.31F
BERTHOUD PASS  CLOUDY    28  18  64 NW35G44   30.25S WCI  12
COTTONWOOD PAS FAIR      43  23  45 NW8       30.19F
GUNNISON       FAIR      35  26  69 CALM      30.19F
KREMMLING      FAIR      36  32  87 CALM      30.16F
LEADVILLE      FAIR      30  20  66 NE6       30.21F WCI  24
MONARCH PASS   FAIR      30  18  59 W33       30.38F WCI  14
SALIDA         FAIR      41  24  49 SW6       30.19F
SUNLIGHT       FAIR      34  23  64 SW9       30.31F WCI  26
WILKERSON PASS FAIR      32  21  64 NW15G23   30.24F WCI  22
$$

COZ069>075-241000-
...SAN LUIS VALLEY/SANGRE DE CRISTO MOUNTAINS...

CITY           SKY/WX    TMP DP  RH WIND       PRES   REMARKS
ALAMOSA        FAIR      38  28  67 S3        30.13F
DEL NORTE      FAIR      40  19  42 W13       30.15F
LA VETA PASS   FAIR      34  21  60 SW22      30.30F WCI  22
SAGUACHE       FAIR      43  21  42 N13       30.15F
$$

COZ035-036-038>040-241000-
...NORTHERN COLORADO FRONT RANGE...

CITY           SKY/WX    TMP DP  RH WIND       PRES   REMARKS
DENVER INTL AP FAIR      41  33  73 S10       29.97F
DMNS CITY PARK   N/A     43  35  72 SE8       29.97F
AURORA         PTCLDY    40  34  78 S9        29.98F
FRONT RANGE AP FAIR      39  36  87 S9        29.99F
ERIE MUNI ARPT FAIR      42  37  81 S3        29.96F
BOULDER MUN AP FAIR      45  34  65 CALM      29.96F
CENTENNIAL     FAIR      41  34  76 S6        29.98F
BROOMFIELD     FAIR      43  34  70 SW3       29.98F
FORT COLLINS   FAIR      44  36  73 S5        29.96F
LONGMONT       FAIR      44  36  74 W3        29.98F
$$

COZ041-046-047-076>085-087-088-241000-
...PIKES PEAK/PALMER DIVIDE AND SOUTHERN FOOTHILLS...

CITY           SKY/WX    TMP DP  RH WIND       PRES   REMARKS
COLO. SPRINGS  FAIR      45  33  63 S6        30.04F
A. F. ACADEMY  FAIR      32  29  88 N9        30.03F WCI  25
SCHRIEVER AFB  FAIR      39  33  80 SW8       30.04F
CHEYENNE MTN   FAIR      43  29  58 NW3       29.99F
ELLICOTT       FAIR       1 N/A N/A CALM      30.02F
FALCON         FAIR      38  31  74 W8        30.05F
FORT CARSON    FAIR      45  33  63 S7        30.01F
LIMON          FAIR      28  27  96 N5        29.99F WCI  23
MONUMENT HILL  FAIR      34  30  86 S8        30.04F WCI  27
CANON CITY     NOT AVBL
WALSENBURG     NOT AVBL
TRINIDAD       FAIR      41  34  76 W13       30.04F
$$

COZ042>045-048>051-090-091-241000-
...NORTHEAST COLORADO...

CITY           SKY/WX    TMP DP  RH WIND       PRES   REMARKS
GREELEY ARPT   FAIR      41  38  89 E5        29.97F
AKRON          FAIR      40  32  73 S7        29.96F
BURLINGTON     FAIR      36  33  89 W7        29.97F
WRAY           FAIR      36  34  93 CALM      29.97F
YUMA           FAIR      34  32  93 W3        29.96F
STERLING       FAIR      37  37 100 S3        29.95F
HOLYOKE        NOT AVBL
FORT MORGAN    FAIR      40  32  73 CALM      29.96F
$$

COZ086-089-092>099-241000-
...SOUTHEAST COLORADO...

CITY           SKY/WX    TMP DP  RH WIND       PRES   REMARKS
PUEBLO         FAIR      43  37  79 CALM      30.00F
LA JUNTA       FAIR      45  38  76 W10       29.98F
LAMAR          FAIR      40  36  86 CALM      29.96F
SPRINGFIELD      N/A     41  36  82 W9        29.98F
$$




USA.gov is the U.S. government's official web portal to all federal, state and local government web resources and services.